Temperature
23 23 22 23 29 31 29 29 30 29 29 28 27 27 27 27 27 24 21 21 20 19 18 19 19 19 19 19 19 19 19 19 19 19 19 18 18 18 18 18 18 18 18 18 18 18 18 18 18
23 23 23 27 31 30 29 30 29 29 28 27 26 26 26 24 23 21 21 20 20 19 19 18 19 19 19 19 19 19 19 19 19 19 18 18 18 18 18 18 18 18 18 18 18 18 18 18 18
23 23 27 31 31 30 29 29 29 28 27 27 27 26 25 23 21 21 20 20 20 19 18 19 19 19 19 19 19 19 19 19 19 19 18 18 18 18 18 18 18 18 18 18 18 18 18 18 18
23 26 29 32 30 30 30 30 29 29 28 27 27 26 23 21 21 21 20 20 20 19 19 19 19 19 19 19 19 19 19 19 18 18 18 18 18 18 18 18 18 18 18 18 18 18 18 18 18
25 30 32 31 30 30 30 30 29 30 28 27 27 26 23 20 20 20 20 20 20 20 19 19 19 19 19 19 19 19 19 19 18 18 18 18 18 18 18 18 18 18 18 18 18 18 18 17 17
29 32 32 31 30 30 30 29 29 29 28 27 27 26 22 20 20 20 20 20 20 20 19 18 19 19 19 19 19 19 19 18 18 18 18 18 18 18 18 18 18 18 18 18 18 17 17 17 17
30 32 31 31 30 30 30 29 29 29 28 27 27 26 22 20 20 20 20 20 20 20 19 18 18 19 19 19 19 19 18 18 18 18 18 18 18 18 18 18 18 18 18 18 18 17 17 17 17
29 32 31 31 31 30 30 29 29 29 28 26 26 27 24 21 20 20 20 20 20 20 19 19 18 18 18 18 19 19 18 18 18 18 18 18 18 18 18 17 18 18 18 18 18 18 17 17 17
28 32 31 31 31 31 30 30 29 28 27 26 26 26 24 21 20 20 20 20 19 19 19 19 19 18 18 18 18 18 18 18 18 18 18 18 17 17 17 17 18 18 18 18 18 18 17 17 17
31 32 31 31 32 31 30 30 29 29 28 27 25 23 21 21 20 20 20 20 19 19 19 19 19 18 18 18 18 17 18 18 17 17 17 17 17 17 17 18 18 18 18 18 18 17 17 17 17
31 31 31 31 30 30 31 30 29 30 30 28 26 23 21 21 21 21 21 20 20 19 19 19 18 18 18 18 18 18 18 18 17 17 17 17 17 17 17 17 17 17 17 17 17 17 17 17 17
31 31 30 30 30 30 30 30 30 30 29 28 26 23 22 21 21 21 21 20 20 19 19 19 18 18 18 18 18 18 18 18 18 17 17 17 17 17 17 17 17 17 17 17 17 17 17 17 17
30 31 30 30 30 30 30 30 30 29 28 26 25 23 22 22 22 21 21 20 20 19 19 19 19 19 19 19 18 18 18 18 18 17 17 17 17 17 17 17 17 17 17 17 17 17 17 17 17
30 30 30 30 30 30 30 30 30 29 27 26 24 23 23 23 22 21 20 20 20 19 19 19 19 19 19 19 19 18 18 18 18 18 17 17 17 17 17 17 17 17 17 17 17 17 17 17 17
29 30 31 31 30 30 30 30 30 28 27 26 25 24 23 23 22 21 21 20 20 20 19 19 19 19 19 19 18 18 18 18 18 18 18 18 17 17 17 17 17 17 17 17 17 17 17 17 17
30 31 31 31 31 30 30 30 30 28 27 27 26 24 23 22 22 21 21 20 20 20 20 20 19 19 19 19 19 18 18 18 18 18 18 18 18 18 18 17 17 17 17 17 17 17 17 17 17
30 31 31 30 30 31 31 31 30 28 28 27 26 25 24 22 22 21 21 21 21 21 20 20 20 19 19 19 19 18 18 18 18 18 18 18 18 18 18 17 17 17 17 17 17 17 17 17 17
30 31 30 30 30 30 30 31 30 28 28 28 27 25 24 23 23 22 21 21 21 21 21 21 20 20 20 19 19 19 18 18 18 18 18 18 18 18 18 17 17 17 17 17 17 17 17 17 17
30 30 30 30 30 30 30 30 30 29 28 28 27 26 25 24 23 22 21 21 21 21 20 21 20 20 20 19 19 19 19 18 18 18 18 18 18 18 18 18 18 18 17 17 17 17 17 17 17
29 29 30 29 29 29 30 30 30 29 28 28 27 26 25 24 23 22 21 21 20 20 21 20 20 20 20 19 19 19 19 18 18 18 18 18 18 18 18 18 18 17 17 17 17 17 18 18 17
29 29 30 29 29 29 29 29 29 29 28 27 27 26 26 25 24 22 21 21 20 20 21 20 20 20 20 19 19 19 19 19 18 18 18 18 18 18 18 18 18 18 17 17 17 17 17 17 18
28 29 29 29 29 30 29 29 30 30 29 28 27 27 26 25 24 23 22 21 21 21 20 20 20 20 20 19 19 19 18 18 19 18 18 18 18 18 18 18 18 18 17 17 17 17 17 17 17
29 29 29 29 29 29 29 29 30 30 29 29 28 27 26 25 24 23 22 22 21 20 20 20 20 20 20 20 19 19 18 18 18 18 18 18 18 18 18 18 18 18 18 17 17 17 17 17 17
28 28 28 28 29 28 29 29 30 31 30 30 29 27 26 25 24 23 22 21 21 20 20 20 20 20 20 19 19 19 18 18 18 18 18 18 18 18 18 18 18 18 18 17 17 17 17 17 17
28 28 27 27 28 28 29 29 30 30 30 29 29 27 26 24 23 22 22 21 21 20 20 20 20 20 20 19 19 19 18 18 18 18 18 18 18 18 18 17 18 17 17 17 17 17 17 17 17
28 29 28 27 28 29 28 28 30 30 28 27 27 26 25 24 23 22 21 21 21 20 20 20 20 20 19 19 19 19 19 18 18 18 18 18 18 18 18 17 17 17 17 17 17 17 17 17 17
28 29 30 29 29 29 29 29 30 29 28 28 27 26 25 24 23 22 22 21 21 20 20 20 19 19 19 19 19 19 19 18 18 18 18 17 17 17 17 17 17 17 17 17 17 17 17 17 17
29 29 29 29 27 27 28 28 29 29 29 28 27 26 25 24 23 22 22 21 20 20 20 19 19 19 19 19 19 18 18 18 18 18 17 17 17 17 17 17 17 17 17 17 17 17 17 17 17
27 28 28 29 29 28 28 29 30 30 29 28 27 26 25 24 23 22 21 21 20 20 19 19 19 19 19 19 18 18 18 18 18 17 17 17 17 17 17 17 17 17 17 17 17 16 16 16 16
29 29 28 27 27 28 29 29 29 29 29 28 27 25 24 24 23 22 21 20 20 19 19 19 19 18 18 18 18 18 18 18 17 17 17 17 17 17 17 17 17 17 16 16 16 16 16 16 16
Wind_Speed
8 6 5 4 2 8 13 11 9 8 6 6 6 4 6 7 6 9 10 15 15 15 17 16 15 15 15 15 15 15 15 15 14 14 14 14 14 14 14 14 14 15 15 15 15 15 16 16 16
4 4 5 4 3 10 11 9 10 9 7 7 6 5 6 7 8 11 13 15 16 16 16 16 16 15 15 14 14 14 14 14 14 14 13 13 13 13 13 14 14 15 15 15 15 15 15 15 15
4 5 4 1 7 10 10 9 9 8 7 5 5 6 5 7 9 10 14 17 16 15 15 17 15 15 14 14 14 14 13 13 13 13 13 13 13 13 13 13 13 14 14 15 15 15 15 15 15
4 4 3 4 11 10 8 8 7 8 7 5 6 8 7 6 7 12 17 17 16 15 15 17 15 14 14 14 13 13 13 12 12 12 12 12 12 13 13 13 13 14 14 14 14 15 14 14 14
5 4 3 8 10 8 7 6 4 5 5 5 5 9 8 6 10 17 18 17 15 15 15 17 15 14 13 13 13 12 12 11 11 11 12 12 12 12 12 13 13 13 13 13 13 13 13 13 13
4 3 4 8 10 7 6 5 4 6 7 7 8 10 7 8 14 17 16 15 14 14 15 17 15 13 13 12 12 11 11 11 11 11 11 11 11 12 12 12 13 12 12 12 12 12 12 11 11
3 0 5 7 8 7 5 3 3 5 6 6 6 8 8 11 14 16 15 14 13 13 14 15 16 14 12 11 11 10 10 10 11 11 11 11 11 11 12 12 12 12 12 11 11 11 11 10 10
4 2 5 5 6 7 5 4 4 4 6 7 5 6 10 14 15 15 14 13 13 12 12 12 13 13 12 12 11 10 10 10 10 10 10 10 11 11 11 11 11 11 10 10 10 10 9 9 9
4 3 5 5 4 6 5 4 4 4 7 5 4 5 13 20 17 16 14 13 12 11 10 11 12 11 10 10 12 11 11 10 10 10 10 9 9 10 10 12 11 9 9 9 9 9 8 8 9
4 2 6 4 4 4 4 3 4 5 7 7 8 11 18 20 18 17 16 15 14 13 12 10 10 10 9 8 10 8 9 9 7 8 8 6 6 6 9 12 9 9 8 8 8 7 8 7 7
1 2 5 4 3 3 4 4 3 4 4 6 11 17 20 20 18 17 16 15 14 13 12 11 9 9 9 7 7 6 6 7 7 7 6 5 6 7 7 8 9 8 9 7 8 8 5 3 3
2 2 2 2 2 1 1 2 3 1 3 5 11 19 21 20 18 17 16 14 14 13 12 11 10 9 8 6 6 6 6 6 6 7 6 6 4 4 5 4 6 6 5 4 4 3 3 2 2
4 3 2 2 1 1 1 2 1 2 4 8 14 19 20 19 17 15 14 13 13 13 12 11 10 9 8 6 5 6 5 6 6 5 5 4 5 4 4 3 3 4 4 5 3 3 3 3 3
3 3 3 3 2 3 3 3 3 3 7 11 14 16 17 17 16 15 14 13 13 13 12 11 11 10 9 7 6 5 5 5 5 5 6 6 4 4 4 4 4 3 3 3 3 4 3 3 2
4 6 6 5 4 3 4 5 4 6 8 11 13 13 15 15 15 15 14 13 13 12 11 11 11 10 10 8 8 6 6 6 6 5 6 6 5 4 4 4 4 4 4 4 4 4 3 4 4
7 9 9 6 5 4 6 5 6 7 9 10 11 12 13 13 14 13 13 12 12 12 12 11 10 11 10 8 7 6 6 6 6 6 6 7 6 5 5 4 4 4 5 5 4 4 4 4 4
9 10 8 7 5 4 7 4 5 6 9 10 11 12 12 13 13 13 13 13 12 13 13 12 11 11 11 10 8 7 6 6 6 6 6 6 7 7 7 5 4 5 5 5 5 4 4 4 4
9 9 8 7 5 6 8 5 4 6 8 9 10 11 11 12 13 13 13 13 13 12 12 13 12 11 10 9 7 7 7 6 7 7 6 7 7 8 8 7 6 7 5 5 5 4 4 4 5
6 8 8 5 3 6 7 7 6 7 8 9 10 10 11 11 11 12 12 12 12 13 13 13 12 12 10 8 8 8 8 7 7 7 8 8 8 8 8 7 6 6 6 6 7 5 6 6 5
9 10 8 5 3 5 6 7 6 7 8 8 9 10 10 10 11 11 11 12 12 13 13 13 13 12 12 9 7 6 6 6 6 6 7 9 9 9 9 8 7 7 6 7 7 6 5 5 5
12 11 8 5 4 6 7 9 8 7 8 8 9 10 10 11 11 12 12 12 12 12 13 12 13 12 12 10 7 6 6 5 6 7 7 8 9 10 9 9 8 7 7 7 8 7 8 6 6
11 8 7 7 8 7 7 8 8 8 9 10 10 10 10 10 10 11 12 12 12 12 12 12 12 12 11 11 10 10 8 8 7 6 6 7 9 9 10 9 8 8 7 7 8 8 7 7 7
7 5 7 8 9 8 8 9 5 7 9 10 10 10 10 9 9 10 11 11 11 11 11 11 12 12 12 11 11 11 9 8 6 6 7 7 7 9 9 9 8 8 8 8 8 6 8 7 8
7 7 6 7 9 11 9 9 6 6 7 6 8 9 8 8 9 9 9 9 10 10 10 11 12 12 11 11 11 11 11 10 8 7 7 7 6 7 9 9 8 9 8 8 8 8 9 8 8
13 11 8 9 10 9 6 8 6 2 2 3 4 6 7 8 8 9 9 10 10 10 11 11 11 11 11 11 11 11 11 11 10 8 7 7 6 6 7 7 7 8 8 9 8 8 9 9 9
17 17 10 8 9 7 7 8 4 2 2 3 4 5 7 8 8 9 9 9 9 10 10 10 10 10 10 10 10 9 9 8 7 7 7 7 6 6 5 7 7 8 9 9 8 8 8 7 7
16 16 13 9 7 8 7 5 5 5 5 5 6 6 7 8 9 9 9 9 8 9 9 9 8 8 8 8 8 8 7 7 7 6 6 6 5 5 6 7 7 7 7 8 7 7 7 7 7
12 14 9 10 8 9 8 8 6 7 7 7 7 7 8 9 9 9 8 8 7 7 7 7 7 7 6 6 6 5 6 6 6 6 5 5 5 5 5 5 5 6 6 7 6 6 6 7 7
13 14 12 11 10 8 7 5 3 5 6 7 8 8 9 9 9 9 8 8 7 7 7 8 7 7 6 6 5 5 5 5 5 4 4 4 4 4 4 4 4 4 5 5 5 6 5 6 6
16 16 15 12 9 10 9 3 5 4 5 6 7 8 8 8 9 9 9 9 8 8 7 7 7 6 5 4 4 4 3 3 3 3 3 3 3 3 3 3 3 3 4 4 5 5 5 5 5
Wind_Direction
207 208 233 246 205 81 72 70 77 86 81 83 87 63 63 50 45 95 121 134 134 133 130 130 122 121 118 116 115 114 113 113 112 111 109 107 105 103 103 104 103 103 102 100 100 100 101 101 102
215 225 238 245 83 85 76 70 75 73 91 109 97 82 75 69 69 113 131 135 139 134 134 130 125 123 120 117 116 115 114 113 113 112 110 108 106 104 103 103 102 102 102 102 102 102 102 102 103
228 241 268 121 70 74 83 80 87 95 106 111 94 70 64 82 109 127 135 141 138 131 129 127 131 127 125 121 119 117 116 115 114 112 111 110 108 106 103 103 103 104 104 104 104 103 102 103 104
247 234 232 96 86 73 84 94 105 109 101 93 104 93 83 86 119 132 139 143 137 137 136 130 134 130 128 125 122 119 117 116 115 114 112 109 108 107 106 104 104 106 107 106 106 106 105 105 106
252 257 139 99 87 86 90 96 101 94 97 103 106 104 94 89 120 134 143 145 143 141 136 134 137 133 131 127 125 122 119 116 115 113 113 113 111 110 109 106 108 110 109 108 108 109 107 107 108
247 237 129 102 97 96 98 107 108 94 105 111 115 112 97 119 137 143 147 148 145 142 139 134 137 135 132 129 126 125 122 119 117 114 114 114 112 112 111 110 110 110 109 110 110 110 109 107 108
285 137 101 103 107 107 95 110 102 103 116 117 122 115 121 140 145 148 148 148 146 144 141 145 146 141 137 132 131 131 127 123 119 117 115 113 112 111 112 113 113 112 111 112 111 110 107 107 109
297 193 126 115 112 100 109 120 100 110 106 120 137 132 146 151 151 150 149 152 151 150 148 149 149 148 153 147 142 139 133 128 123 121 120 120 121 119 121 125 116 116 116 117 115 113 111 111 113
268 215 128 108 99 103 128 139 118 114 127 130 110 104 134 146 152 155 156 158 157 156 156 158 153 156 158 151 146 150 144 139 142 135 134 151 142 133 140 111 118 121 121 120 120 120 121 129 132
254 173 92 75 66 98 134 147 142 157 153 142 126 116 133 149 159 165 166 167 166 166 167 165 161 157 162 155 152 160 157 150 159 139 148 142 119 121 117 119 128 129 129 131 128 137 161 189 146
249 94 96 104 77 86 134 142 160 187 173 170 159 149 152 159 167 173 174 174 170 172 172 169 164 163 169 160 162 159 155 151 155 145 148 132 145 142 141 143 145 150 160 156 148 175 176 150 108
196 117 109 112 87 97 125 145 164 207 58 119 152 155 160 168 174 178 177 177 173 178 178 174 167 171 174 173 167 171 167 164 160 152 170 157 158 152 141 152 146 159 158 146 164 161 151 144 141
201 170 159 163 195 250 242 201 160 132 107 129 145 158 167 174 176 179 178 179 178 182 182 179 177 174 175 178 190 180 176 171 163 163 170 176 171 167 153 149 162 177 159 167 181 176 167 188 191
190 199 207 209 204 194 215 194 189 140 136 143 155 167 174 176 177 177 181 184 185 187 186 182 184 182 183 183 190 187 186 181 182 180 175 190 187 169 173 174 179 189 189 178 184 182 190 206 212
206 216 211 201 202 191 217 201 184 149 152 158 165 171 175 178 180 184 186 188 189 188 187 188 188 185 189 193 195 195 197 190 192 186 187 199 203 189 200 191 194 193 187 182 203 200 207 211 210
211 217 210 181 194 196 234 208 144 159 170 170 172 174 178 182 188 190 189 190 190 188 188 193 194 188 190 196 201 205 207 199 201 198 195 202 207 206 219 212 204 197 204 200 202 220 214 218 227
209 215 206 176 190 210 234 227 138 175 185 182 180 179 182 185 193 194 193 193 193 192 190 192 197 193 192 193 198 207 207 213 213 209 205 203 212 213 221 225 212 213 217 218 228 207 227 222 230
205 210 204 198 178 223 231 233 176 187 200 196 189 186 186 191 196 194 194 196 195 194 192 194 195 196 193 193 198 208 211 211 217 219 212 214 218 219 225 222 215 226 223 222 230 232 237 240 238
225 222 212 196 176 232 233 238 219 198 207 205 202 196 195 197 193 189 192 194 194 195 193 194 195 191 191 194 201 207 208 211 215 220 215 219 228 223 227 236 216 230 232 232 230 230 230 231 235
219 220 212 190 192 241 242 243 227 212 214 213 209 204 201 196 190 188 190 191 195 195 196 195 196 194 197 199 203 212 217 218 217 225 219 223 226 227 225 230 232 230 233 231 236 237 243 240 226
218 225 218 209 207 218 243 234 214 203 212 214 216 212 206 198 192 189 189 191 192 195 197 197 196 194 198 196 200 209 213 226 219 222 218 222 227 228 234 231 235 236 237 232 233 236 238 245 236
215 218 225 219 227 218 229 246 209 204 210 212 213 209 205 197 193 188 186 188 192 194 196 196 194 195 196 194 202 208 217 224 225 225 223 223 225 228 228 232 233 236 239 236 237 233 240 246 247
216 188 212 222 235 244 222 253 221 192 221 215 209 207 203 194 191 189 189 189 190 189 189 189 190 193 194 198 204 211 220 228 232 228 225 230 227 227 230 231 234 235 241 241 244 242 240 240 246
180 178 194 223 233 237 231 246 245 206 227 219 201 198 196 189 185 182 184 184 185 184 186 187 188 193 195 198 205 210 218 223 228 226 227 227 229 228 227 229 233 235 238 238 237 237 237 241 246
196 196 200 210 220 232 201 239 249 223 222 237 206 188 186 181 177 174 175 178 181 182 186 188 188 193 196 200 206 210 216 221 224 226 225 231 232 229 227 234 235 237 236 237 236 233 240 236 239
205 211 219 225 226 215 192 235 232 159 189 208 195 179 171 170 169 169 172 173 178 182 182 186 188 192 195 199 204 209 214 223 228 226 233 231 236 239 233 234 236 238 238 237 234 238 237 236 241
201 219 237 248 250 242 217 226 226 185 190 182 170 164 161 160 160 161 162 166 169 173 176 181 184 189 194 199 200 205 210 221 228 227 229 240 241 242 238 237 237 238 238 236 235 237 237 232 235
223 211 215 230 230 236 226 228 220 185 183 171 165 159 154 154 155 153 153 155 158 163 166 169 176 184 188 191 196 198 205 216 226 231 232 240 245 249 246 240 238 238 238 233 229 230 230 231 235
198 205 213 226 237 242 234 214 175 181 177 173 162 154 152 154 152 148 145 144 147 154 157 162 166 171 177 183 190 201 207 214 219 219 225 233 237 237 237 238 239 239 239 234 227 233 230 230 234
205 208 208 215 219 238 256 213 118 164 167 165 159 153 150 151 148 146 144 142 145 147 150 153 156 159 159 164 174 188 195 199 199 203 224 227 230 230 226 230 234 236 236 230 228 234 232 230 236
Height
1505 1504 1504 1506 1499 1497 1505 1503 1501 1504 1506 1510 1513 1513 1513 1516 1518 1530 1535 1536 1539 1541 1542 1543 1545 1546 1548 1549 1550 1551 1552 1553 1554 1554 1555 1556 1556 1557 1558 1558 1559 1560 1560 1561 1562 1562 1563 1563 1564
1507 1506 1507 1503 1494 1507 1512 1504 1505 1508 1511 1514 1515 1517 1518 1523 1527 1531 1534 1538 1541 1543 1545 1546 1546 1548 1550 1551 1552 1553 1554 1555 1556 1557 1557 1558 1559 1559 1560 1561 1561 1562 1563 1564 1564 1565 1565 1566 1566
1507 1507 1507 1496 1498 1506 1511 1506 1509 1512 1514 1515 1517 1519 1522 1527 1531 1534 1536 1539 1543 1545 1546 1546 1548 1550 1552 1553 1554 1555 1556 1557 1558 1559 1560 1560 1561 1562 1563 1563 1564 1565 1565 1566 1567 1567 1568 1568 1569
1509 1509 1504 1497 1504 1505 1505 1507 1510 1511 1515 1517 1518 1522 1527 1532 1533 1536 1538 1541 1544 1546 1549 1548 1550 1552 1554 1555 1556 1558 1559 1560 1560 1561 1562 1563 1563 1564 1565 1565 1566 1567 1568 1569 1569 1570 1570 1571 1572
1510 1505 1497 1501 1505 1506 1506 1509 1511 1511 1515 1518 1519 1523 1530 1534 1535 1537 1540 1543 1546 1549 1551 1550 1552 1554 1556 1557 1558 1560 1561 1562 1562 1563 1564 1565 1565 1566 1567 1568 1568 1569 1570 1571 1572 1572 1573 1574 1574
1509 1500 1499 1506 1508 1507 1508 1511 1511 1513 1517 1520 1521 1525 1532 1535 1537 1540 1543 1546 1549 1551 1553 1552 1554 1556 1558 1559 1560 1562 1563 1563 1564 1565 1566 1566 1567 1568 1569 1570 1571 1571 1572 1573 1574 1575 1576 1576 1577
1507 1497 1501 1504 1507 1508 1510 1512 1512 1513 1517 1520 1523 1526 1533 1537 1539 1542 1544 1547 1550 1552 1554 1555 1556 1557 1559 1561 1562 1563 1564 1565 1566 1567 1568 1568 1569 1570 1571 1572 1572 1573 1574 1575 1576 1577 1578 1579 1579
1509 1500 1502 1503 1506 1508 1511 1513 1515 1515 1519 1523 1524 1526 1532 1537 1539 1543 1546 1548 1551 1554 1556 1557 1559 1560 1561 1562 1563 1564 1566 1567 1567 1568 1569 1570 1571 1572 1573 1574 1574 1575 1576 1577 1578 1579 1580 1581 1581
1510 1501 1503 1503 1505 1507 1511 1512 1516 1518 1520 1523 1525 1527 1531 1535 1539 1543 1546 1549 1551 1554 1556 1558 1560 1562 1564 1565 1565 1566 1567 1568 1569 1570 1570 1572 1574 1574 1575 1575 1576 1577 1578 1579 1580 1581 1582 1583 1583
1506 1501 1504 1505 1505 1506 1511 1512 1515 1517 1519 1523 1527 1529 1532 1535 1539 1542 1546 1548 1551 1553 1556 1558 1561 1562 1564 1566 1566 1568 1569 1569 1571 1572 1573 1574 1575 1576 1577 1576 1577 1578 1579 1580 1581 1583 1584 1585 1586
1505 1503 1506 1508 1509 1510 1510 1512 1514 1514 1515 1520 1525 1529 1532 1535 1539 1543 1546 1549 1551 1554 1556 1558 1560 1561 1564 1566 1567 1569 1570 1571 1572 1573 1573 1575 1576 1577 1578 1579 1579 1580 1581 1583 1583 1584 1587 1587 1588
1508 1509 1510 1510 1511 1511 1511 1512 1513 1515 1517 1520 1524 1527 1531 1535 1538 1542 1545 1548 1551 1554 1556 1559 1560 1561 1564 1566 1568 1569 1571 1572 1573 1573 1574 1576 1577 1578 1579 1580 1581 1582 1583 1584 1585 1586 1587 1587 1588
1508 1509 1510 1511 1512 1512 1512 1512 1514 1516 1519 1521 1524 1528 1531 1534 1538 1542 1545 1548 1550 1553 1555 1558 1559 1561 1562 1564 1567 1569 1571 1573 1573 1574 1574 1576 1577 1578 1579 1580 1581 1583 1584 1584 1585 1586 1587 1587 1588
1509 1510 1510 1510 1511 1512 1512 1512 1514 1517 1520 1522 1525 1528 1531 1535 1538 1541 1544 1547 1549 1552 1554 1556 1558 1560 1562 1564 1566 1568 1570 1571 1574 1574 1575 1575 1577 1578 1579 1580 1581 1583 1584 1585 1585 1586 1587 1587 1588
1511 1509 1507 1508 1510 1511 1512 1511 1513 1517 1520 1523 1526 1529 1532 1535 1538 1541 1543 1546 1549 1551 1553 1555 1557 1559 1561 1563 1566 1568 1570 1572 1573 1574 1574 1575 1577 1578 1579 1580 1581 1582 1583 1583 1584 1585 1586 1587 1588
1508 1507 1507 1506 1508 1510 1512 1511 1511 1516 1519 1522 1525 1528 1532 1535 1538 1541 1543 1545 1547 1550 1552 1554 1557 1558 1560 1562 1564 1567 1569 1571 1572 1573 1574 1574 1576 1577 1578 1580 1581 1581 1583 1583 1584 1585 1586 1587 1587
1506 1506 1505 1506 1507 1508 1508 1508 1511 1515 1517 1520 1524 1527 1530 1533 1536 1539 1541 1543 1545 1547 1549 1552 1554 1556 1559 1561 1563 1565 1567 1569 1570 1572 1573 1574 1575 1576 1577 1579 1580 1580 1582 1583 1584 1585 1585 1585 1585
1505 1503 1505 1506 1506 1507 1507 1506 1509 1514 1516 1518 1521 1525 1528 1531 1533 1536 1538 1541 1543 1545 1547 1549 1552 1554 1557 1559 1561 1563 1565 1567 1568 1570 1571 1572 1573 1574 1576 1577 1578 1579 1580 1581 1582 1582 1583 1583 1584
1500 1503 1505 1505 1506 1507 1507 1506 1507 1511 1514 1516 1519 1522 1525 1528 1531 1533 1535 1538 1540 1542 1544 1546 1549 1552 1554 1557 1559 1561 1563 1565 1566 1568 1569 1570 1571 1573 1574 1576 1576 1577 1578 1578 1580 1581 1581 1582 1582
1504 1506 1506 1507 1507 1508 1507 1506 1505 1509 1511 1514 1516 1519 1522 1526 1529 1531 1533 1535 1537 1539 1541 1544 1547 1549 1552 1555 1557 1559 1561 1562 1564 1565 1566 1568 1569 1570 1572 1572 1574 1574 1575 1576 1577 1578 1579 1580 1580
1505 1505 1504 1507 1508 1506 1508 1508 1504 1506 1510 1512 1514 1517 1519 1522 1525 1528 1530 1532 1534 1536 1538 1541 1544 1546 1549 1552 1554 1557 1558 1560 1562 1563 1564 1565 1566 1567 1568 1569 1571 1572 1573 1574 1574 1575 1576 1577 1578
1506 1502 1505 1508 1510 1506 1508 1511 1501 1501 1504 1507 1510 1513 1516 1519 1522 1525 1527 1529 1531 1533 1536 1538 1541 1543 1546 1548 1551 1553 1555 1557 1559 1560 1562 1562 1563 1564 1565 1566 1567 1568 1570 1570 1571 1573 1573 1574 1574
1500 1503 1505 1506 1507 1507 1506 1509 1498 1498 1501 1501 1505 1509 1512 1516 1519 1522 1524 1526 1529 1531 1533 1535 1537 1540 1542 1545 1547 1550 1552 1554 1556 1558 1558 1559 1560 1560 1562 1563 1564 1564 1566 1567 1567 1568 1569 1570 1571
1502 1506 1507 1506 1504 1517 1506 1510 1504 1493 1496 1496 1500 1506 1510 1514 1517 1519 1522 1524 1526 1528 1530 1532 1534 1537 1539 1541 1544 1546 1548 1550 1552 1554 1555 1556 1557 1557 1558 1559 1560 1560 1562 1562 1563 1564 1565 1566 1567
1502 1507 1516 1519 1517 1512 1501 1508 1500 1489 1492 1495 1499 1504 1508 1511 1514 1517 1519 1521 1524 1526 1528 1530 1531 1534 1536 1538 1540 1542 1544 1547 1548 1549 1551 1552 1553 1554 1554 1555 1556 1556 1557 1558 1559 1560 1561 1562 1562
1498 1498 1509 1518 1515 1505 1506 1506 1492 1490 1495 1498 1500 1503 1506 1510 1512 1515 1517 1519 1522 1524 1526 1528 1529 1531 1534 1535 1537 1539 1541 1544 1545 1546 1547 1548 1549 1550 1550 1551 1551 1552 1553 1554 1555 1556 1556 1557 1558
1495 1494 1485 1495 1500 1505 1500 1496 1489 1490 1493 1496 1499 1502 1505 1508 1511 1514 1516 1518 1521 1522 1524 1526 1528 1530 1532 1534 1535 1537 1538 1540 1542 1543 1544 1545 1546 1546 1547 1547 1547 1548 1549 1550 1551 1551 1552 1553 1553
1486 1486 1494 1498 1512 1514 1504 1500 1492 1489 1490 1493 1497 1500 1503 1507 1510 1513 1516 1517 1519 1521 1523 1525 1527 1528 1530 1531 1533 1534 1536 1537 1539 1540 1540 1542 1542 1543 1543 1543 1544 1544 1545 1546 1547 1547 1548 1548 1549
1491 1491 1490 1492 1492 1506 1509 1498 1479 1483 1487 1490 1495 1499 1503 1506 1509 1512 1515 1517 1518 1520 1522 1523 1525 1527 1528 1530 1531 1532 1534 1535 1536 1537 1538 1539 1539 1539 1540 1540 1541 1541 1542 1543 1543 1544 1544 1545 1546
1481 1483 1488 1498 1501 1497 1496 1493 1480 1483 1486 1490 1494 1499 1503 1506 1509 1511 1514 1516 1518 1520 1522 1523 1525 1527 1528 1529 1530 1531 1532 1533 1534 1535 1535 1536 1536 1537 1537 1538 1538 1539 1539 1540 1540 1541 1541 1542 1542